Home > Weather > Wittenberg > Past weeks

Flag for Germany Past Weather in Wittenberg, Saxony-Anhalt, Germany — Yesterday and Last 2 Weeks

Now
68 °F

Partly cloudy.


Feels Like: 68 °F
Forecast: 59 / 74 °F
Wind: 9 mph from West

Location: Holzdorf

Current Time: Jun 26, 2016 at 1:13:27 AM

Latest Report: Jun 26, 2016 at 12:20 AM


Visibility: N/A

Pressure: 29.86 "Hg

Humidity: 83%

Dew Point: 63 °F

Location of WittenbergLocation

Past Weather in Wittenberg — Graph

°F

Wittenberg Temperature Yesterday

Maximum temperature yesterday: 88 °F (at 1:20 PM)
Minimum temperature yesterday: 63 °F (at 4:20 AM)
Average temperature yesterday: 75 °F

High & Low Weather Summary for the Past Weeks

 TemperatureHumidityPressure
High93 °F (Jun 24, 4:20 PM)100% (Jun 12, 2:20 AM)30.24 "Hg (Jun 12, 2:20 AM)
Low45 °F (Jun 12, 5:20 AM)32% (Jun 24, 3:20 PM)29.50 "Hg (Jun 14, 1:20 PM)
Average65 °F75%29.86 "Hg
* Reported Jun 10 11:20 PM — Jun 25 11:20 PM, Wittenberg, Weather by CustomWeather, © 2016

Note: Actual official high and low records may vary slightly from our data, if they occured in-between our weather recording intervals... More about our weather records

Advertising

Wittenberg Weather History for the Previous 24 Hours

Scroll right to see more
 ConditionsComfort  
Time TempWeatherWind HumidityBarometerVisibility
11:20 PM
Sat, Jun 25
70 °FThundershowers. Partly cloudy.6 mph94%29.86 "HgN/A
10:49 PM70 °FThundershowers. Partly cloudy.3 mph94%29.83 "HgN/A
10:20 PM73 °FThunderstorms. Broken clouds.5 mph83%29.83 "HgN/A
10:04 PM73 °FThundershowers. Broken clouds.5 mph78%29.83 "HgN/A
9:20 PM75 °FBroken clouds.3 mph74%29.80 "HgN/A
8:20 PM79 °FBroken clouds.7 mph65%29.80 "HgN/A
7:20 PM81 °FBroken clouds.7 mph66%29.77 "HgN/A
6:20 PM81 °FScattered clouds.9 mph66%29.77 "HgN/A
5:20 PM82 °FScattered clouds.13 mph62%29.77 "HgN/A
4:20 PM82 °FSprinkles. Scattered clouds.8 mph62%29.77 "HgN/A
3:20 PM86 °FScattered clouds.10 mph59%29.77 "HgN/A
2:20 PM86 °FPassing clouds.5 mph55%29.77 "HgN/A
1:20 PM88 °FPassing clouds.6 mph55%29.80 "HgN/A
12:20 PM84 °FPassing clouds.5 mph58%29.83 "HgN/A
11:20 AM82 °FPassing clouds.5 mph58%29.83 "HgN/A
10:20 AM79 °FPassing clouds.2 mph65%29.83 "HgN/A
9:20 AM77 °FPassing clouds.2 mph69%29.86 "HgN/A
8:20 AM72 °FPassing clouds.2 mph78%29.86 "HgN/A
7:20 AM68 °FPassing clouds.2 mph83%29.89 "HgN/A
6:20 AM64 °FPassing clouds.5 mph88%29.89 "HgN/A
5:20 AM63 °FPassing clouds.2 mph88%29.89 "HgN/A
4:20 AM63 °FPassing clouds.2 mph94%29.89 "HgN/A
3:20 AM64 °FPassing clouds.1 mph88%29.92 "HgN/A
2:20 AM66 °FPassing clouds.2 mph83%29.95 "HgN/A
1:20 AM68 °FPassing clouds.5 mph78%29.95 "HgN/A
Weather by CustomWeather, © 2016

See weather overviewHow to use our weather pages